RH
36 37 38 39 39 39 38 39 39 39 41 42 45 47 48 50 53 56 57 59 60 62 63 64 64 66 65 67 69 70 71 73 74 76 77 80 82 83 84 84 88 94 92 83 78 76 75 73 72 72 69 66 66 66 66 66 67 67 68 66 63 63 65
38 38 40 39 39 39 39 39 40 40 42 44 46 48 50 53 56 58 59 61 64 64 65 66 66 67 68 69 71 72 74 75 76 79 81 82 84 86 86 86 89 94 96 91 86 83 82 78 75 75 72 69 68 68 67 67 67 67 65 64 64 62 59
39 39 39 39 39 39 40 40 41 41 43 46 48 50 52 55 57 60 62 64 66 66 67 68 69 69 69 71 75 76 77 79 79 81 83 84 85 87 88 87 88 92 96 94 90 88 88 85 80 78 74 71 70 69 70 70 68 68 69 66 65 65 62
39 38 39 39 40 40 41 42 42 44 46 47 50 52 54 56 59 61 64 65 67 68 69 71 72 72 73 75 79 81 80 81 82 83 86 88 88 90 91 90 91 94 95 96 93 91 91 90 86 83 79 75 73 73 72 72 69 69 71 70 68 69 65
38 38 39 39 41 42 43 44 44 46 48 50 52 54 55 58 61 62 65 66 68 70 72 74 75 74 76 80 83 85 83 82 84 86 88 91 92 92 93 94 97 99 98 99 98 95 92 91 88 87 84 79 76 76 74 73 72 72 72 72 71 70 67
39 39 40 41 43 45 45 47 47 49 51 52 55 57 58 61 62 64 66 68 70 72 74 76 77 77 80 83 85 84 82 82 85 88 90 92 92 93 95 97 99 101 101 101 100 97 95 92 90 89 87 82 78 78 78 76 76 73 71 73 74 72 67
40 40 42 45 47 48 48 49 50 51 53 55 57 59 60 62 64 66 68 70 72 75 77 78 78 79 80 81 82 83 84 86 88 90 92 93 92 93 96 101 102 102 104 103 101 100 98 96 93 90 88 85 81 80 81 79 81 80 74 72 74 72 69
42 42 46 49 50 51 52 52 53 54 56 58 60 62 63 65 66 68 70 73 76 77 80 80 80 81 82 83 84 86 87 89 90 92 94 93 93 96 99 103 104 103 103 103 102 100 98 96 94 92 90 87 85 86 85 80 81 82 78 73 72 71 71
45 46 49 51 53 55 56 56 57 58 59 62 64 65 67 68 70 74 78 82 86 87 88 88 88 88 88 88 88 88 89 90 90 94 97 95 94 98 101 104 104 103 101 101 101 100 98 96 94 92 89 87 85 85 83 78 77 79 77 74 74 72 71
48 49 51 54 57 58 59 61 62 61 67 77 83 85 86 86 87 90 93 95 97 97 96 93 91 90 88 88 89 90 93 94 96 98 100 98 97 98 101 104 104 102 101 101 101 98 95 96 96 91 87 85 83 81 80 79 79 80 78 77 81 80 70
52 53 54 57 61 62 63 66 65 68 81 95 99 98 99 101 100 99 100 100 100 100 99 98 96 94 92 93 94 95 98 99 101 102 101 100 100 100 100 101 102 102 101 99 100 99 97 98 97 91 85 83 82 81 81 80 80 81 82 83 89 89 75
56 58 59 61 65 66 68 69 68 78 95 103 100 97 97 100 102 101 101 101 100 100 100 100 100 99 99 99 99 99 99 99 99 100 100 101 101 100 101 102 97 96 100 102 101 100 99 98 97 93 89 88 87 85 83 83 82 83 85 86 89 93 84
60 62 64 66 69 70 72 73 72 84 100 103 100 98 96 98 102 102 100 101 100 100 101 100 100 101 100 99 98 97 97 98 99 99 100 102 102 100 101 96 79 69 82 99 104 105 104 100 99 99 94 86 85 87 87 89 89 87 89 91 90 90 85
64 67 68 71 74 74 78 78 74 85 100 103 100 100 98 99 102 100 99 101 100 99 101 100 99 100 100 98 97 95 94 94 95 97 98 97 95 89 85 81 69 58 64 76 86 96 99 91 87 88 83 73 73 83 88 90 91 90 90 93 92 90 87
69 72 73 76 78 80 84 82 80 91 103 101 99 101 100 99 100 100 100 101 100 101 101 99 97 98 99 99 98 94 91 90 90 92 94 92 89 82 74 70 66 62 60 59 62 70 73 69 66 66 66 61 63 72 79 82 88 91 93 95 96 95 96
73 76 76 79 83 87 90 87 86 97 104 101 99 101 99 99 100 100 100 99 98 98 97 96 97 97 97 99 96 89 90 97 98 96 96 96 94 90 85 77 66 60 61 60 59 60 59 58 59 61 64 68 73 80 85 90 95 97 99 102 101 100 100
77 79 82 86 89 93 97 92 87 96 103 102 101 100 99 100 100 99 99 98 96 96 98 98 97 95 93 95 92 88 94 101 102 100 101 100 99 98 98 94 80 69 65 62 59 63 68 71 74 78 81 81 83 87 93 101 103 95 93 97 96 94 89
83 85 88 92 93 96 101 95 88 94 104 104 100 100 100 100 100 100 100 99 98 98 97 94 91 89 93 97 94 94 100 98 94 98 102 99 100 101 100 99 92 85 82 76 69 73 82 83 80 81 82 77 73 73 78 87 87 80 83 91 91 86 81
89 91 92 92 92 94 98 98 90 90 101 105 101 101 101 99 100 101 99 98 99 98 96 94 92 89 95 103 100 98 102 97 91 99 104 100 100 101 100 99 98 96 97 96 92 93 96 92 83 79 79 73 68 64 60 60 62 66 80 94 92 86 88
95 96 92 88 89 90 93 96 92 85 92 104 104 100 100 100 99 100 100 100 100 100 99 96 91 86 90 98 100 102 102 93 85 91 99 100 102 102 100 99 99 100 102 103 101 98 94 87 78 72 68 63 57 52 47 49 58 68 83 97 99 95 96
98 99 91 83 85 88 90 95 94 86 89 102 105 100 99 101 100 99 100 100 97 97 97 95 93 90 86 86 94 103 97 79 70 78 88 94 99 99 96 98 101 102 100 96 91 84 76 70 64 59 55 52 49 45 46 53 63 74 85 96 101 101 101
99 99 93 86 85 88 91 94 94 88 86 94 103 104 100 99 100 100 100 100 99 99 100 99 96 92 86 87 99 104 88 67 66 79 87 91 95 98 99 101 99 93 87 81 76 72 70 67 64 61 60 60 59 58 59 62 65 75 89 98 101 102 103
98 99 98 94 90 90 93 94 91 87 82 82 90 100 103 101 100 100 100 101 101 100 100 100 100 99 98 97 94 84 70 65 77 91 96 96 98 99 98 94 85 78 75 72 71 73 75 73 71 72 73 74 77 79 81 83 82 85 95 100 99 99 99
97 101 103 102 98 95 95 94 89 83 78 73 73 82 96 104 101 95 96 102 103 102 102 102 99 94 88 79 70 67 73 85 96 99 98 97 94 89 84 78 74 73 73 74 75 78 80 78 76 78 82 84 90 94 95 97 96 95 97 98 96 96 96
99 103 105 104 103 99 95 91 85 78 74 72 69 72 86 100 99 89 88 96 98 95 94 96 91 82 77 75 77 83 90 92 90 88 87 88 85 80 76 74 75 77 76 78 79 80 81 81 81 84 90 94 97 100 99 99 98 97 98 99 98 98 98
102 106 107 104 102 100 94 87 83 78 73 72 74 76 79 82 80 72 69 74 75 72 73 80 83 84 88 91 92 92 91 87 85 85 85 86 84 82 80 78 76 75 75 77 80 84 88 90 89 92 98 99 98 98 98 99 100 101 101 100 99 98 97
101 105 107 104 100 97 94 89 86 83 80 77 80 82 78 73 70 68 67 69 70 69 70 73 77 84 94 99 97 97 98 96 93 91 87 86 84 81 77 74 74 77 83 89 92 95 96 94 93 98 101 99 99 99 99 100 101 101 101 99 97 99 98
99 102 102 101 99 97 98 97 93 89 86 85 85 83 80 78 79 79 81 81 79 79 82 86 90 95 101 103 103 101 100 97 94 90 85 80 76 72 70 71 75 82 89 93 94 95 96 95 99 103 102 100 101 101 100 100 100 99 99 98 99 101 99
98 98 97 98 100 100 101 101 97 93 92 93 94 92 92 95 95 93 93 92 91 92 96 99 101 102 101 101 100 96 93 90 85 80 75 70 67 68 71 74 79 84 87 90 94 99 102 104 105 104 102 101 102 102 101 100 99 98 98 99 100 100 98
101 99 98 99 100 100 101 101 99 98 99 100 101 99 94 93 95 98 100 100 99 101 102 101 101 100 99 97 92 87 84 80 76 73 71 69 69 73 76 78 82 87 92 97 103 107 106 104 103 102 102 101 102 102 101 99 97 98 99 100 101 100 98
100 99 100 101 102 101 101 101 100 101 100 100 101 98 90 84 87 95 100 101 100 100 101 100 99 97 94 89 85 82 79 77 76 76 78 79 80 82 84 85 86 89 95 101 105 107 105 103 102 102 102 101 101 102 101 99 98 98 98 99 99 100 98
102 101 100 100 100 100 100 100 100 100 100 100 100 99 97 95 95 97 100 100 99 99 100 100 97 94 89 85 81 79 78 77 78 81 84 89 92 93 93 93 92 93 98 102 104 106 106 103 100 101 102 101 101 101 100 100 100 99 99 98 99 99 98
98 100 101 100 101 101 100 100 101 100 100 100 100 99 100 100 99 99 101 101 100 99 99 97 93 88 84 82 79 78 77 78 81 83 86 90 94 96 95 95 95 98 101 102 102 104 105 102 100 101 102 102 102 101 100 100 100 100 99 99 99 100 98
88 90 93 96 99 102 102 100 101 101 100 100 100 100 100 99 98 99 101 102 100 100 98 94 89 86 83 82 81 80 79 80 82 84 87 90 93 95 95 95 97 101 103 104 104 105 106 106 105 104 102 102 102 101 101 100 100 100 100 100 100 100 99
91 88 88 90 95 100 102 101 100 100 100 100 100 99 99 100 100 100 101 101 100 99 95 89 86 85 83 83 83 83 83 85 86 87 90 92 92 93 94 96 98 101 104 106 106 104 103 104 104 103 102 102 103 102 101 100 100 100 100 100 99 100 100
97 93 91 91 92 95 99 100 100 100 100 100 100 101 102 102 100 98 98 97 94 90 86 83 84 85 85 86 88 89 89 89 90 90 91 92 93 95 97 97 99 101 104 105 103 101 101 101 101 101 102 102 103 103 100 100 100 100 100 100 100 100 99
Wind_Speed
21 21 22 22 22 22 22 23 23 23 23 22 23 23 23 23 22 22 22 22 22 21 21 23 24 25 25 24 24 25 24 24 23 22 22 21 21 21 20 21 20 16 20 32 33 29 27 26 27 28 28 30 31 28 26 27 26 26 27 29 31 32 32
22 22 22 22 23 23 23 23 24 24 23 23 24 24 23 24 23 23 23 23 23 23 23 24 25 26 26 26 26 26 25 25 24 23 23 22 21 22 21 21 23 20 19 26 31 28 25 25 27 29 28 28 29 28 28 30 30 30 31 32 33 35 36
22 22 22 23 23 23 24 24 24 25 25 24 24 24 24 25 24 24 24 24 24 25 25 25 26 27 27 26 26 26 26 25 25 23 24 24 23 23 23 22 23 24 22 24 29 26 21 21 24 26 25 26 30 30 30 32 34 33 32 32 33 34 36
22 22 23 23 24 24 24 25 25 25 26 26 25 25 25 26 26 26 26 26 26 27 27 27 28 28 28 27 26 26 26 25 25 25 24 24 23 23 24 24 24 24 24 25 27 25 20 18 20 23 24 26 30 32 31 32 34 33 32 32 32 33 35
22 22 24 24 24 25 25 25 26 26 27 26 26 26 26 27 27 28 28 28 28 28 29 29 29 30 28 27 27 27 27 27 26 26 25 24 24 24 24 25 23 22 23 24 25 24 21 19 19 22 24 25 28 31 32 31 31 32 33 33 33 33 34
22 23 24 24 24 24 25 26 26 27 27 27 27 27 27 28 29 29 30 30 30 31 31 31 31 30 29 28 28 29 29 28 27 27 27 26 27 26 26 26 25 24 23 23 24 24 22 20 20 22 24 24 25 28 29 29 31 33 35 33 32 34 35
23 23 24 24 24 25 25 26 27 28 28 28 28 28 29 30 30 31 32 32 33 32 32 32 31 31 30 30 30 30 30 29 28 28 29 29 29 29 28 28 28 27 26 24 24 24 23 22 22 24 26 27 25 25 27 27 28 31 34 34 33 34 35
23 23 23 24 25 25 25 26 28 29 29 30 30 30 31 32 32 33 34 34 35 34 33 32 31 31 31 31 31 31 30 30 29 30 30 30 29 29 29 28 28 27 26 25 25 25 23 23 24 25 27 28 24 22 24 26 26 27 32 35 36 38 37
22 23 24 25 25 25 26 27 28 29 30 31 31 32 33 34 34 35 36 36 35 35 33 32 32 32 32 31 31 30 30 30 30 31 31 31 30 30 30 29 28 26 26 25 24 24 23 22 22 24 26 26 24 22 24 28 27 29 34 36 38 41 39
23 24 25 26 26 26 27 28 29 30 30 29 29 31 33 33 34 35 35 35 35 34 33 33 33 32 32 31 31 30 30 30 30 30 31 31 30 30 30 30 29 28 27 26 24 25 24 19 19 24 27 28 29 28 27 29 30 32 35 32 29 33 40
24 24 25 26 27 28 29 29 30 30 29 27 28 30 32 32 32 31 31 31 31 31 31 30 31 31 30 30 30 29 29 29 29 29 30 30 30 31 31 31 31 30 29 28 26 27 25 20 20 26 30 31 32 31 29 31 32 31 30 26 19 19 30
25 25 26 27 28 29 30 31 31 29 28 28 29 30 32 32 31 30 29 29 29 29 29 28 28 28 28 28 28 28 29 29 30 30 29 30 31 31 32 33 34 34 31 28 26 25 24 22 22 26 30 31 32 32 32 32 32 31 28 25 21 17 26
26 26 27 27 29 30 31 31 31 29 28 29 30 30 31 33 32 29 28 27 27 28 27 27 26 27 27 28 27 28 29 30 31 32 32 32 32 32 34 35 37 38 35 32 29 25 23 23 23 25 29 32 33 33 32 31 31 33 30 27 25 26 33
27 27 28 28 29 30 31 31 31 30 28 28 29 30 31 32 32 30 28 27 27 26 25 25 25 26 27 28 28 28 30 31 32 33 33 34 35 35 36 36 38 39 39 38 35 32 32 33 33 34 36 38 38 35 33 31 32 33 32 30 31 34 38
27 28 28 28 29 30 32 32 31 29 28 28 29 29 30 30 30 28 27 26 25 25 25 25 26 27 28 28 29 30 30 30 31 31 32 34 35 36 36 37 38 38 39 39 39 39 40 40 40 41 41 42 42 41 40 39 38 37 35 34 33 33 35
27 28 28 29 28 29 32 33 31 28 27 28 28 28 29 29 28 27 27 27 27 27 27 27 26 26 27 29 30 29 28 28 28 29 31 33 34 35 36 37 37 37 37 39 39 40 41 41 42 42 42 42 40 38 37 34 32 31 29 27 25 23 26
27 27 28 28 29 30 32 33 32 28 27 27 27 27 28 28 28 28 28 28 28 28 28 27 26 26 27 29 29 29 27 27 28 30 32 33 33 34 35 36 37 37 37 37 38 39 39 39 38 36 35 34 32 31 27 21 19 20 20 18 14 12 19
27 27 28 29 30 30 31 33 33 28 26 27 27 26 27 28 27 27 27 26 26 26 27 27 27 27 27 28 29 28 27 27 29 32 33 32 31 31 33 34 35 36 36 35 36 37 37 36 35 32 32 32 33 33 29 23 21 22 20 17 13 13 19
26 28 29 30 31 31 30 32 33 30 27 27 26 26 26 27 27 27 27 27 26 27 28 28 28 28 27 27 28 27 27 28 30 32 33 32 31 30 31 32 32 33 33 31 30 29 29 30 32 32 33 33 33 34 32 29 28 25 21 19 19 20 17
26 29 30 30 31 31 31 31 32 31 29 27 26 26 25 26 26 25 24 23 23 24 25 26 28 29 27 26 26 26 28 29 30 31 31 30 28 27 27 28 27 26 23 20 18 19 21 24 27 29 31 33 34 35 34 32 29 25 23 22 22 24 18
26 28 31 31 31 32 31 31 31 31 29 26 26 25 24 25 26 25 23 24 24 26 27 28 28 29 28 28 26 26 28 30 30 30 28 26 24 23 22 18 14 13 13 14 18 21 23 26 28 30 31 32 33 34 33 32 29 26 24 23 24 25 22
26 27 30 31 31 32 32 30 29 29 28 26 25 24 23 24 25 24 24 24 24 24 25 26 27 28 29 28 26 26 28 29 29 27 24 22 20 18 14 10 9 13 17 20 23 25 25 27 28 29 30 30 31 31 30 30 30 28 25 24 25 27 26
26 26 28 30 31 31 31 29 27 27 26 24 22 22 22 23 24 25 25 24 23 22 22 24 25 25 25 25 25 27 29 28 24 21 19 18 17 15 15 16 19 21 22 23 24 24 24 26 26 27 28 28 28 27 26 26 28 29 28 27 28 30 32
24 23 25 28 30 30 30 28 27 25 23 22 21 21 22 23 24 26 27 26 24 23 22 22 22 23 25 26 27 27 25 22 19 17 16 17 18 19 21 23 24 23 23 23 24 23 24 25 25 25 26 26 25 24 25 26 28 30 30 30 31 32 33
23 22 23 25 27 29 30 28 27 25 21 20 21 23 24 24 26 27 27 26 26 25 25 25 25 26 26 26 25 23 22 22 22 21 20 19 20 22 23 24 24 24 23 23 24 24 25 26 26 24 24 24 24 24 25 27 28 29 29 27 27 29 32
23 22 22 24 26 28 29 28 27 25 23 23 25 26 24 23 24 25 25 26 27 28 28 27 27 26 24 23 22 22 23 24 25 24 22 21 22 23 24 24 25 25 25 25 25 25 25 25 25 24 24 23 24 25 25 25 26 27 26 24 24 28 33
22 22 21 23 25 27 29 29 28 27 27 27 27 25 23 22 24 25 26 27 28 28 28 29 28 27 24 23 23 23 23 24 24 25 25 25 24 25 25 26 26 25 24 24 24 24 25 26 25 24 23 23 23 24 25 23 22 24 25 25 25 26 31
23 24 23 24 26 26 27 28 29 29 29 28 25 23 23 24 25 26 27 29 29 29 29 28 27 26 24 23 24 23 23 23 23 23 23 24 24 25 25 25 24 22 22 22 22 23 24 24 23 22 22 21 22 24 23 21 20 22 25 25 23 21 24
25 27 27 27 28 27 26 27 29 29 27 24 23 23 25 26 27 29 31 31 31 30 28 25 23 22 21 21 20 20 19 20 20 21 23 24 24 24 23 22 21 21 21 21 20 21 21 21 21 21 21 21 22 23 21 19 19 21 23 22 21 21 24
26 28 28 28 29 29 27 27 27 25 23 22 24 25 26 27 27 26 26 25 24 23 23 20 19 18 17 16 16 16 18 19 20 21 22 22 22 21 21 20 19 19 19 18 18 18 20 20 20 20 20 20 21 22 20 18 18 19 20 20 20 22 24
25 26 26 25 26 26 24 23 22 22 23 24 25 26 26 26 25 21 17 14 13 15 17 17 16 15 15 14 15 16 18 18 18 19 19 20 20 19 18 18 18 17 16 16 17 18 19 20 20 20 20 19 20 20 19 18 17 18 19 20 20 21 22
23 24 23 22 23 24 23 22 22 22 24 25 24 24 23 22 21 19 13 9 10 11 14 15 14 14 15 15 16 17 17 17 17 17 17 17 17 17 17 16 16 16 15 16 18 19 20 20 20 19 19 19 19 19 19 18 17 18 18 19 20 20 21
21 22 21 20 20 21 23 24 23 22 22 22 22 21 20 19 20 19 15 13 13 12 13 14 14 15 16 16 17 18 17 17 17 17 16 16 17 18 18 17 16 16 16 17 18 18 19 19 19 20 20 19 19 19 19 19 18 18 19 19 19 20 21
23 22 22 21 21 20 21 23 23 22 21 21 20 20 20 21 21 20 16 14 13 12 12 13 14 15 16 16 17 17 17 17 16 16 16 17 17 18 18 18 17 17 17 18 17 18 20 20 20 20 19 19 18 18 19 19 18 18 18 18 18 20 21
26 25 24 24 23 21 20 21 22 21 21 20 20 20 21 21 20 18 15 14 13 13 14 14 15 16 16 17 17 17 16 17 16 16 17 17 18 19 18 18 18 18 18 18 19 20 20 19 19 19 19 18 19 19 19 19 18 18 18 19 20 22 22
27 27 26 26 24 22 20 20 20 20 20 20 20 20 18 15 12 13 15 17 17 17 17 17 17 17 17 17 17 17 17 17 17 17 18 18 18 19 19 19 19 19 19 19 19 19 19 18 19 20 20 20 20 20 20 19 19 19 20 20 21 21 21
Wind_Direction
269 271 273 274 274 275 274 272 269 268 271 275 278 277 276 273 268 265 264 265 267 269 272 273 273 272 271 270 269 268 267 265 263 262 260 258 257 255 252 252 251 254 273 279 281 285 291 295 298 298 299 301 301 302 303 301 299 299 299 298 298 298 298
271 272 274 274 275 275 274 270 267 268 270 274 276 276 274 270 265 263 263 265 267 270 273 274 273 272 271 269 267 265 265 264 263 262 261 258 255 256 253 251 252 255 266 279 283 286 290 293 294 294 297 299 299 299 300 299 297 296 296 296 296 296 297
272 275 276 276 276 275 272 269 266 267 270 272 274 274 273 268 264 262 263 264 267 271 273 274 272 271 270 267 266 265 264 264 263 261 260 259 256 256 256 253 253 256 261 273 281 285 289 292 293 291 293 296 296 296 297 296 296 297 295 295 296 295 296
273 276 277 277 276 275 271 268 267 268 270 271 273 273 272 269 264 263 264 266 269 272 274 273 272 270 268 266 264 264 264 263 262 261 259 259 258 256 258 258 254 255 259 267 276 281 283 287 288 288 290 293 293 294 294 295 296 297 296 295 295 294 295
275 277 278 277 276 274 271 269 269 270 270 270 271 272 271 268 265 265 266 267 270 272 273 273 271 269 267 264 262 262 263 262 261 261 259 259 260 258 259 259 256 254 256 262 270 276 280 282 283 284 285 287 290 292 293 294 295 296 295 294 293 293 294
277 278 278 277 276 274 272 271 271 270 271 271 272 272 270 268 267 266 267 269 271 272 273 271 269 268 265 262 261 260 261 262 261 261 261 259 260 261 260 259 257 257 257 260 266 272 277 279 279 281 282 283 285 287 290 294 295 294 294 293 293 294 294
278 279 279 277 276 274 273 273 273 272 272 273 273 273 271 269 268 268 268 270 272 272 272 271 268 266 264 262 261 261 262 263 263 262 261 261 262 262 260 259 259 258 258 259 263 268 272 275 275 276 278 281 283 283 284 288 290 291 293 294 293 292 293
280 281 280 278 277 276 275 275 273 273 273 274 275 274 272 270 269 269 270 271 272 272 271 271 269 267 266 265 264 264 264 264 264 263 261 261 262 261 259 258 258 258 258 259 262 264 267 271 272 273 274 278 280 278 278 280 281 284 288 291 292 290 291
281 282 281 280 279 278 276 275 273 274 275 276 276 275 273 271 270 270 270 270 271 272 271 271 271 269 269 268 268 268 268 268 267 264 261 261 261 259 257 257 256 256 256 257 259 261 263 265 266 268 271 274 273 270 274 279 280 279 281 285 288 289 289
280 281 281 281 280 279 277 275 275 277 277 274 273 273 271 270 269 269 268 267 267 268 269 270 270 269 270 270 270 269 268 267 266 262 259 259 259 257 255 254 253 253 253 253 254 257 259 258 257 261 266 269 272 273 275 277 275 275 278 283 284 286 289
280 282 282 282 281 280 278 277 279 280 277 272 270 269 268 267 266 266 265 264 263 264 264 265 265 266 266 266 265 264 263 261 259 257 256 256 256 255 254 252 250 249 249 248 250 254 254 249 252 260 265 268 272 274 272 272 271 270 273 277 276 280 288
281 283 283 282 281 280 279 280 282 281 277 273 273 272 271 270 269 268 267 265 263 262 261 260 260 261 260 260 260 261 262 261 259 258 257 257 258 257 257 256 253 251 250 247 248 251 250 248 252 261 265 267 269 270 269 269 268 267 266 268 267 266 276
281 283 283 282 280 280 280 281 283 282 277 275 276 276 276 276 275 273 270 268 265 262 259 258 258 257 258 259 261 262 262 261 261 260 259 258 259 258 258 258 259 259 260 259 259 259 257 256 258 262 265 267 268 268 267 266 266 267 265 262 262 264 270
282 282 282 281 280 281 281 282 284 283 278 276 277 277 277 278 277 276 273 271 268 264 260 259 260 261 262 263 263 263 263 263 262 261 260 260 259 259 259 259 260 262 264 265 266 266 266 265 264 264 265 268 268 265 264 264 264 266 267 264 266 269 272
281 281 282 281 281 282 281 283 284 283 279 278 279 279 280 280 280 277 274 272 269 265 263 265 266 265 266 266 266 266 266 265 264 263 262 261 260 260 261 261 261 263 264 266 267 267 268 269 268 267 268 270 271 269 267 267 266 267 269 270 271 273 274
279 281 282 283 283 282 282 283 284 281 279 279 280 280 281 281 279 277 275 274 272 269 268 269 268 267 268 267 267 269 267 262 261 261 261 260 261 262 263 263 265 267 268 269 270 269 270 271 272 273 274 274 274 272 272 274 272 270 270 268 268 271 271
281 282 283 284 283 282 281 284 285 283 279 280 280 280 279 278 276 274 273 272 270 269 268 269 269 270 271 269 269 270 267 260 257 256 255 255 257 259 261 263 268 273 274 274 275 274 273 273 275 277 278 279 279 280 285 290 284 278 277 273 270 272 273
282 282 282 282 283 282 281 283 285 284 280 279 280 279 279 278 277 274 273 272 271 270 269 269 271 272 270 268 269 269 264 260 258 256 254 254 255 255 256 260 265 269 270 272 275 277 277 277 279 281 283 285 286 288 293 295 287 283 281 274 267 268 275
281 282 282 282 283 283 281 281 284 285 281 280 280 279 277 277 274 271 270 269 268 267 267 267 270 272 267 263 265 265 262 262 261 258 256 256 255 253 254 258 261 262 263 264 266 268 270 273 276 280 284 287 288 290 292 290 287 285 277 265 261 264 269
280 281 283 284 284 284 282 281 284 287 285 281 279 278 276 274 271 269 269 269 267 266 266 267 270 272 270 266 266 266 266 267 268 265 263 261 256 255 260 264 262 258 257 259 262 267 273 278 282 284 285 287 288 290 291 290 289 285 273 262 260 262 260
280 281 283 285 285 284 284 282 284 288 288 282 279 278 276 273 271 270 270 270 269 265 265 266 268 271 274 275 272 269 269 272 274 274 274 271 267 269 274 274 262 253 261 275 284 289 292 293 294 293 291 290 289 288 289 290 290 285 275 263 258 260 261
281 281 283 286 286 284 284 285 286 289 290 286 281 278 275 272 271 270 268 266 265 262 261 263 266 270 275 275 270 267 270 275 279 280 281 281 282 285 291 293 288 289 293 295 297 299 298 297 297 296 294 293 290 289 290 289 288 285 279 269 262 260 261
281 281 282 285 287 287 287 288 290 292 292 290 285 279 276 275 273 272 271 271 272 271 269 267 266 268 269 268 266 268 275 280 282 283 286 288 289 292 296 298 299 301 301 300 299 298 295 294 294 292 290 289 289 290 291 289 287 285 281 277 272 267 264
280 280 280 283 286 288 289 291 294 295 294 291 288 283 280 279 277 276 278 280 280 278 276 274 271 269 268 268 271 276 281 283 282 284 288 290 289 290 292 295 299 302 302 300 297 294 291 290 290 288 287 287 288 290 291 288 286 284 282 281 280 277 274
278 277 277 280 283 286 290 294 296 296 295 292 290 289 285 282 279 278 279 281 280 277 276 276 274 273 273 275 279 282 283 282 281 284 287 287 287 289 292 296 299 300 299 296 292 290 288 287 287 286 285 287 289 290 290 289 289 289 288 286 285 284 282
275 275 275 276 279 283 289 293 294 294 294 293 292 291 288 282 277 276 276 276 275 274 274 273 272 273 275 277 279 279 279 279 280 282 284 285 288 291 293 295 295 295 294 291 288 286 284 283 285 287 287 289 291 290 290 291 292 292 291 291 293 291 287
272 272 271 273 278 282 285 289 289 289 290 292 292 290 285 277 274 276 276 274 273 273 273 271 270 270 269 269 269 269 270 272 275 277 280 283 285 288 289 289 289 289 287 283 281 281 281 283 286 287 288 290 291 290 291 293 292 290 291 295 296 291 286
270 270 270 271 276 279 281 282 282 284 288 291 289 283 277 273 274 276 274 274 275 275 273 271 269 266 263 261 262 263 264 266 269 273 277 280 283 285 285 285 284 282 279 277 278 281 283 286 287 287 288 291 291 290 291 292 289 288 290 294 295 289 285
272 274 275 273 272 272 270 272 279 287 291 289 282 276 271 269 270 273 273 274 276 274 269 264 260 257 255 254 256 260 263 267 271 275 278 282 284 285 285 284 282 281 281 282 284 285 285 286 286 286 288 290 290 289 290 290 289 289 290 294 295 289 287
271 275 277 273 271 271 269 272 282 290 289 284 282 281 277 274 275 279 278 273 268 260 253 247 243 242 243 246 253 262 268 273 277 280 280 282 283 283 283 283 281 281 283 285 284 283 283 285 285 285 286 288 288 289 290 290 289 288 289 292 292 289 289
271 277 278 276 278 281 280 280 284 286 283 284 287 287 286 286 290 296 293 274 254 242 234 230 230 234 242 251 259 264 269 272 274 274 275 278 279 279 279 279 281 283 285 284 283 284 284 283 282 281 283 285 285 287 289 290 290 288 286 288 288 287 289
279 284 286 285 285 287 287 287 288 286 285 288 288 288 292 293 294 301 297 266 241 232 226 225 232 243 253 259 262 265 269 270 270 270 271 272 274 276 277 278 284 289 289 285 286 287 285 283 281 280 282 283 284 286 289 290 288 286 286 288 287 285 286
284 287 291 291 288 288 289 291 293 292 291 292 291 291 294 292 290 293 283 253 235 231 231 234 245 254 260 263 266 269 272 272 271 272 273 273 273 276 279 283 287 291 291 288 287 286 284 282 282 282 282 282 282 284 286 286 286 286 286 287 287 285 284
292 294 296 296 293 291 290 292 295 295 295 296 294 292 292 289 285 283 271 247 235 237 242 247 253 259 263 267 269 271 273 272 273 275 275 275 276 279 282 286 288 289 290 290 288 285 283 283 283 281 280 281 283 285 285 283 283 285 285 285 286 286 285
294 298 300 299 296 293 289 288 291 292 292 291 289 287 287 284 278 271 260 248 248 258 263 263 264 266 270 271 271 271 271 270 272 275 274 276 278 280 283 285 286 286 288 289 288 287 286 285 283 280 280 283 285 285 283 281 281 282 283 285 285 284 285
291 296 299 299 296 293 290 287 287 287 287 286 284 285 289 289 284 277 270 266 270 275 275 273 271 272 273 273 272 271 270 269 271 274 275 277 278 280 281 282 283 285 288 289 288 287 285 284 283 283 284 284 282 280 278 278 280 282 283 285 284 282 283